Location: Düngen
(52.0952°N, 10.0219°E)
Time: 16:12:24
(UTC+00:00)

SPOT 3 Rocket - Pass Details

Date: 11 March 2026
Orbit: 774 x 790 km, 98.5° (Epoch: 14 April)

Event Time Altitude Azimuth Distance (km) Brightness Sun altitude
Exits shadow 20:58:57 50° 311° (NW) 1,009 4.3 -32.2°
Drops below altitude 10° 21:02:59 10° 340° (NNW) 2,367 6.7 -32.6°
Sets 21:05:21 0° 343° (NNW) 3,301 7.6 -32.9°
